Regional Weather Roundup
Issued by NWS

Home | Current Version | Previous Version | Graphics & Text | Print | Product List | Glossary On
Versions: 1 2 3 4 5 6 7 8 9 10 11 12 13 14 15 16 17 18 19 20 21 22 23 24 25 26 27 28 29 30 31 32 33 34 35 36 37 38 39 40 41 42 43 44 45 46 47 48 49 50
305
ASUS45 KABQ 161501
RWRNM
NEW MEXICO REGIONAL WEATHER ROUNDUP
NATIONAL WEATHER SERVICE ALBUQUERQUE NM
800 AM MST TUE JAN 16 2018

NOTE: "FAIR" MEANS FEW OR NO CLOUDS BELOW 12,000 FEET AGL WITH NO
       SIGNIFICANT WEATHER OR OBSTRUCTIONS TO VISION.

      THIS PRODUCT IS RELEASED AS TWO VERSIONS.  ONE VERSION NEAR
      THE TOP OF THE HOUR CONTAINING PRELIMINARY DATA FROM ALBUQUERQUE
      AND OTHER STATIONS.  A FINAL VERSION WITH ADDITIONAL DATA IS
      ISSUED ABOUT 10 MINUTES AFTER THE HOUR.

NMZ501-503-504-510>518-161600-
NORTHWEST PLATEAU/NORTHCENTRAL MOUNTAINS

CITY           SKY/WX    TMP DP  RH WIND       PRES   REMARKS
FARMINGTON     FAIR      21  17  84 E7        30.38R WCI  12
LOS ALAMOS     CLOUDY    18  15  88 CALM      30.43R
SANTA FE       CLOUDY    20  15  81 S5        30.45R WCI  13
TAOS           CLOUDY    18  15  88 CALM      30.45R
ANGEL FIRE     CLOUDY    16  12  83 CALM      30.38R

$$
NMZ402-403-502-505>509-161600-
WESTCENTRAL MOUNTAINS/SOUTHWEST MOUNTAINS

CITY           SKY/WX    TMP DP  RH WIND       PRES   REMARKS
GALLUP         FAIR      23  18  81 NE10      30.35R WCI  12
GRANTS         CLOUDY    23  19  83 SE14G20   30.41R WCI  11
SILVER CITY    FAIR      23  14  69 CALM      30.42R

$$
NMZ407-409-411-412-161600-
SOUTHERN DESERTS

CITY           SKY/WX    TMP DP  RH WIND       PRES   REMARKS
DEMING         FAIR      28   9  44 E14       30.46R WCI  17
LAS CRUCES     FAIR      29   6  38 SE8       30.47R WCI  21
HOLLOMAN AFB   FAIR      24   9  52 W5        30.53R WCI  19
ALAMOGORDO     FAIR      27   9  46 N8        30.51R WCI  18
T OR C         FAIR      27  12  53 N10       30.46R WCI  17

$$
NMZ519>523-161600-
CENTRAL VALLEYS/CENTRAL HIGHLANDS

CITY           SKY/WX    TMP DP  RH WIND       PRES   REMARKS
ALBUQUERQUE    CLOUDY    25  14  63 E13       30.47R WCI  14
DOUBLE EAGLE   CLOUDY    21  12  68 N7        30.46R WCI  13
MORIARTY ARPT  CLOUDY    20  13  76 S6        30.49R WCI  12
CLINES CORNERS CLOUDY    17  12  80 SE7       30.43R WCI   8
BELEN          FAIR      18  11  73 W7        30.48R WCI   9
SOCORRO        FAIR      23   8  53 N8        30.49R WCI  14

$$
NMZ524>526-539-540-161600-
SOUTHCENTRAL MOUNTAINS

CITY           SKY/WX    TMP DP  RH WIND       PRES   REMARKS
RUIDOSO        NOT AVBL

$$
NMZ527>531-161600-
NORTHEAST HIGHLANDS/NORTHEAST PLAINS

CITY           SKY/WX    TMP DP  RH WIND       PRES   REMARKS
LAS VEGAS      CLOUDY    16  14  92 SW6       30.42S WCI   7
RATON          CLOUDY    15  11  83 CALM      30.45R
CLAYTON        FAIR      11   5  77 CALM      30.52R

$$
NMZ532>537-161600-
EASTCENTRAL PLAINS

CITY           SKY/WX    TMP DP  RH WIND       PRES   REMARKS
SANTA ROSA     CLOUDY    22  11  62 SE7       30.55R WCI  13
TUCUMCARI      CLOUDY    15  -2  46 E8        30.60S WCI   4
CANNON AFB     CLOUDY    17   0  46 E7        30.61S WCI   7
CLOVIS AIRPORT CLOUDY    15  -1  49 NE7       30.62R WCI   5

$$
NMZ028-029-538-161600-
SOUTHEAST PLAINS

CITY           SKY/WX    TMP DP  RH WIND       PRES   REMARKS
ROSWELL        FAIR      24   8  50 S5        30.62R WCI  18
ARTESIA        FAIR      23   5  46 S8        30.66R WCI  14
CARLSBAD       FAIR      25   5  42 E9        30.66R WCI  15
HOBBS          SUNNY     19   0  42 E9        30.66R WCI   9


$$




USA.gov is the U.S. government's official web portal to all federal, state and local government web resources and services.